Regional Weather Roundup
Issued by NWS Kansas City/Pleasant Hill, MO

Home | Current Version | Previous Version | Graphics & Text | Print | Product List | Glossary Off
Versions: 1 2 3 4 5 6 7 8 9 10 11 12 13 14 15 16 17 18 19 20 21 22 23 24 25 26 27 28 29 30 31 32 33 34 35 36 37 38 39 40 41 42 43 44 45 46 47 48 49 50

331
ASUS43 KEAX 021810
RWREAX

WEATHER ROUNDUP FOR EASTERN KANSAS AND NORTHWEST MISSOURI
NATIONAL WEATHER SERVICE KANSAS CITY/PLEASANT HILL MO
1200 PM CST FRI DEC 02 2016

KSZ040-057-103>105-MOZ028-029-037-043-021900-
...KANSAS CITY METROPOLITAN AREA...

CITY           SKY/WX    TMP DP  RH WIND       PRES   REMARKS
K.C. INTL      MOSUNNY   45  27  49 NE5       30.28S
6HR MIN TEMP:  25; 6HR MAX TEMP:  46;

K.C. DOWNTOWN  SUNNY     46  29  51 CALM      30.28F
6HR MIN TEMP:  26; 6HR MAX TEMP:  47;

LEES SUMMIT    SUNNY     47  26  44 VRB5      30.28S
6HR MIN TEMP:  27; 6HR MAX TEMP:  47;

OLATHE - IXD   SUNNY     48  26  42 CALM      30.27F
6HR MIN TEMP:  25; 6HR MAX TEMP:  48;

OLATHE - OJC   SUNNY     47  25  42 E6        30.27F
6HR MIN TEMP:  26; 6HR MAX TEMP:  47;

LAWRENCE       SUNNY     46  28  49 VRB3      30.28F

$$

MOZ001>008-011>017-020>025-030>033-038>040-044>046-053-054-021900-
...NORTHERN AND CENTRAL MISSOURI...

CITY           SKY/WX    TMP DP  RH WIND       PRES   REMARKS
ST. JOSEPH     SUNNY     41  28  60 CALM      30.30S
6HR MIN TEMP:  19; 6HR MAX TEMP:  41;

MOSBY          CLEAR     45  28  53 NW3       30.29S
WARRENSBURG    SUNNY     46  28  49 N6        30.28S
WHITEMAN AFB   MOSUNNY   47  26  45 N3        30.27S
6HR MIN TEMP:  28; 6HR MAX TEMP:  47;

CLINTON        SUNNY     48  28  46 CALM      30.28S
SEDALIA        SUNNY     49  28  44 N8        30.29R
6HR MIN TEMP:  32; 6HR MAX TEMP:  49;

WARSAW         NOT AVBL
CHILLICOTHE      N/A     44  31  60 CALM      30.29F
6HR MIN TEMP:  20; 6HR MAX TEMP:  44; 6HR PCP:  0.07;

KIRKSVILLE     MOSUNNY   43  30  60 NW5       30.26F
6HR MIN TEMP:  22; 6HR MAX TEMP:  43;


$$

MOZ041-047>049-056>058-063>065-088>090-097-021900-
...EASTERN AND SOUTHERN MISSOURI...

CITY           SKY/WX    TMP DP  RH WIND       PRES   REMARKS
ST. LOUIS INTL MOSUNNY   46  28  49 NW9       30.28R
6HR MIN TEMP:  28; 6HR MAX TEMP:  46;

SPIRIT OF STL  SUNNY     47  29  49 N7        30.27S
COLUMBIA       SUNNY     45  27  49 NW7       30.27S
JEFFERSON CITY SUNNY     46  28  49 VRB5      30.28F
ROLLA          SUNNY     47  27  45 CALM      30.26R
OSAGE BEACH    SUNNY     51  26  37 CALM      30.28S
SPRINGFIELD    SUNNY     54  23  30 VRB6      30.23F
BRANSON        MOSUNNY   54  28  37 E3        30.24F
JOPLIN         SUNNY     55  27  34 E6        30.24F
WEST PLAINS    SUNNY     52  27  38 CALM      30.26F

$$

IAZ060-094-KSZ022-034>040-054-083-096-NEZ052-066-093-021900-
...KANSAS...SOUTHEAST NEBRASKA AND IOWA...

CITY           SKY/WX    TMP DP  RH WIND       PRES   REMARKS
TOPEKA         SUNNY     46  28  49 CALM      30.28F
6HR MIN TEMP:  20; 6HR MAX TEMP:  46;

MANHATTAN      SUNNY     45  26  47 E5        30.27F
EMPORIA        SUNNY     47  25  42 E9        30.25F
CHANUTE        MOSUNNY   53  23  31 E10       30.25F
WICHITA        CLOUDY    48  26  42 NE8       30.24F
OMAHA          PTSUNNY   39  29  67 N8        30.28S WCI  33
LINCOLN        SUNNY     40  29  64 CALM      30.31R
FALLS CITY     SUNNY     40  28  62 CALM      30.30S
LAMONI         MOSUNNY   40  30  67 NW7       30.26S
DES MOINES     CLOUDY    41  31  67 N6        30.26F

$$





USA.gov is the U.S. government's official web portal to all federal, state and local government web resources and services.